Year,Month,Day,Hour,Minute,Value (Times are PST for temperature in C)
2011,06,26,00,00,9.10
2011,06,26,00,01,9.10
2011,06,26,00,02,9.10
2011,06,26,00,03,9.10
2011,06,26,00,04,9.10
2011,06,26,00,05,9.10
2011,06,26,00,06,9.10
2011,06,26,00,07,9.10
2011,06,26,00,08,9.10
2011,06,26,00,09,9.10
2011,06,26,00,10,9.10
2011,06,26,00,11,9.10
2011,06,26,00,12,9.10
2011,06,26,00,13,9.10
2011,06,26,00,14,9.10
2011,06,26,00,15,9.10
2011,06,26,00,16,9.20
2011,06,26,00,17,9.20
2011,06,26,00,18,9.20
2011,06,26,00,19,9.20
2011,06,26,00,20,9.20
2011,06,26,00,21,9.30
2011,06,26,00,22,9.30
2011,06,26,00,23,9.30
2011,06,26,00,24,9.30
2011,06,26,00,25,9.30
2011,06,26,00,26,9.30
2011,06,26,00,27,9.30
2011,06,26,00,28,9.30
2011,06,26,00,29,9.30
2011,06,26,00,30,9.30
2011,06,26,00,31,9.30
2011,06,26,00,32,9.20
2011,06,26,00,33,9.20
2011,06,26,00,34,9.20
2011,06,26,00,35,9.20
2011,06,26,00,36,9.20
2011,06,26,00,37,9.20
2011,06,26,00,38,9.20
2011,06,26,00,39,9.20
2011,06,26,00,40,9.20
2011,06,26,00,41,9.20
2011,06,26,00,42,9.10
2011,06,26,00,43,9.10
2011,06,26,00,44,9.20
2011,06,26,00,45,9.20
2011,06,26,00,46,9.20
2011,06,26,00,47,9.20
2011,06,26,00,48,9.20
2011,06,26,00,49,9.20
2011,06,26,00,50,9.20
2011,06,26,00,51,9.20
2011,06,26,00,52,9.20
2011,06,26,00,53,9.20
2011,06,26,00,54,9.20
2011,06,26,00,55,9.20
2011,06,26,00,56,9.20
2011,06,26,00,57,9.30
2011,06,26,00,58,9.30
2011,06,26,00,59,9.30
2011,06,26,01,00,9.30
2011,06,26,01,01,9.30
2011,06,26,01,02,9.30
2011,06,26,01,03,9.30
2011,06,26,01,04,9.30
2011,06,26,01,05,9.30
2011,06,26,01,06,9.30
2011,06,26,01,07,9.30
2011,06,26,01,08,9.30
2011,06,26,01,09,9.40
2011,06,26,01,10,9.40
2011,06,26,01,11,9.40
2011,06,26,01,12,9.40
2011,06,26,01,13,9.40
2011,06,26,01,14,9.40
2011,06,26,01,15,9.40
2011,06,26,01,16,9.40
2011,06,26,01,17,9.40
2011,06,26,01,18,9.40
2011,06,26,01,19,9.40
2011,06,26,01,20,9.40
2011,06,26,01,21,9.40
2011,06,26,01,22,9.40
2011,06,26,01,23,9.40
2011,06,26,01,24,9.30
2011,06,26,01,25,9.30
2011,06,26,01,26,9.30
2011,06,26,01,27,9.30
2011,06,26,01,28,9.30
2011,06,26,01,29,9.30
2011,06,26,01,30,9.30
2011,06,26,01,31,9.30
2011,06,26,01,32,9.30
2011,06,26,01,33,9.30
2011,06,26,01,34,9.30
2011,06,26,01,35,9.30
2011,06,26,01,36,9.20
2011,06,26,01,37,9.20
2011,06,26,01,38,9.30
2011,06,26,01,39,9.30
2011,06,26,01,40,9.30
2011,06,26,01,41,9.30
2011,06,26,01,42,9.30
2011,06,26,01,43,9.30
2011,06,26,01,44,9.30
2011,06,26,01,45,9.30
2011,06,26,01,46,9.30
2011,06,26,01,47,9.30
2011,06,26,01,48,9.30
2011,06,26,01,49,9.30
2011,06,26,01,50,9.30
2011,06,26,01,51,9.30
2011,06,26,01,52,9.30
2011,06,26,01,53,9.30
2011,06,26,01,54,9.30
2011,06,26,01,55,9.20
2011,06,26,01,56,9.20
2011,06,26,01,57,9.20
2011,06,26,01,58,9.20
2011,06,26,01,59,9.20
2011,06,26,02,00,9.20
2011,06,26,02,01,9.20
2011,06,26,02,02,9.20
2011,06,26,02,03,9.20
2011,06,26,02,04,9.20
2011,06,26,02,05,9.20
2011,06,26,02,06,9.20
2011,06,26,02,07,9.20
2011,06,26,02,08,9.20
2011,06,26,02,09,9.20
2011,06,26,02,10,9.20
2011,06,26,02,11,9.20
2011,06,26,02,12,9.20
2011,06,26,02,13,9.20
2011,06,26,02,14,9.20
2011,06,26,02,15,9.10
2011,06,26,02,16,9.10
2011,06,26,02,17,9.10
2011,06,26,02,18,9.00
2011,06,26,02,19,9.00
2011,06,26,02,20,9.00
2011,06,26,02,21,8.90
2011,06,26,02,22,8.90
2011,06,26,02,23,8.80
2011,06,26,02,24,8.80
2011,06,26,02,25,8.70
2011,06,26,02,26,8.70
2011,06,26,02,27,8.70
2011,06,26,02,28,8.70
2011,06,26,02,29,8.60
2011,06,26,02,30,8.60
2011,06,26,02,31,8.60
2011,06,26,02,32,8.60
2011,06,26,02,33,8.50
2011,06,26,02,34,8.50
2011,06,26,02,35,8.50
2011,06,26,02,36,8.50
2011,06,26,02,37,8.40
2011,06,26,02,38,8.40
2011,06,26,02,39,8.40
2011,06,26,02,40,8.40
2011,06,26,02,41,8.40
2011,06,26,02,42,8.40
2011,06,26,02,43,8.40
2011,06,26,02,44,8.40
2011,06,26,02,45,8.40
2011,06,26,02,46,8.40
2011,06,26,02,47,8.40
2011,06,26,02,48,8.40
2011,06,26,02,49,8.40
2011,06,26,02,50,8.40
2011,06,26,02,51,8.40
2011,06,26,02,52,8.30
2011,06,26,02,53,8.20
2011,06,26,02,54,8.10
2011,06,26,02,55,8.00
2011,06,26,02,56,7.90
2011,06,26,02,57,7.80
2011,06,26,02,58,7.70
2011,06,26,02,59,7.60
2011,06,26,03,00,7.60
2011,06,26,03,01,7.50
2011,06,26,03,02,7.40
2011,06,26,03,03,7.30
2011,06,26,03,04,7.30
2011,06,26,03,05,7.20
2011,06,26,03,06,7.20
2011,06,26,03,07,7.20
2011,06,26,03,08,7.10
2011,06,26,03,09,7.10
2011,06,26,03,10,7.10
2011,06,26,03,11,7.10
2011,06,26,03,12,7.10
2011,06,26,03,13,7.10
2011,06,26,03,14,7.20
2011,06,26,03,15,7.20
2011,06,26,03,16,7.20
2011,06,26,03,17,7.20
2011,06,26,03,18,7.30
2011,06,26,03,19,7.30
2011,06,26,03,20,7.30
2011,06,26,03,21,7.30
2011,06,26,03,22,7.30
2011,06,26,03,23,7.30
2011,06,26,03,24,7.30
2011,06,26,03,25,7.30
2011,06,26,03,26,7.30
2011,06,26,03,27,7.30
2011,06,26,03,28,7.30
2011,06,26,03,29,7.30
2011,06,26,03,30,7.20
2011,06,26,03,31,7.10
2011,06,26,03,32,7.10
2011,06,26,03,33,7.00
2011,06,26,03,34,7.00
2011,06,26,03,35,7.00
2011,06,26,03,36,6.90
2011,06,26,03,37,6.90
2011,06,26,03,38,6.90
2011,06,26,03,39,6.80
2011,06,26,03,40,6.80
2011,06,26,03,41,6.80
2011,06,26,03,42,6.80
2011,06,26,03,43,6.80
2011,06,26,03,44,6.80
2011,06,26,03,45,6.80
2011,06,26,03,46,6.80
2011,06,26,03,47,6.80
2011,06,26,03,48,6.80
2011,06,26,03,49,6.80
2011,06,26,03,50,6.90
2011,06,26,03,51,6.90
2011,06,26,03,52,6.90
2011,06,26,03,53,6.90
2011,06,26,03,54,6.90
2011,06,26,03,55,6.90
2011,06,26,03,56,6.90
2011,06,26,03,57,6.90
2011,06,26,03,58,6.90
2011,06,26,03,59,6.90
2011,06,26,04,00,6.90
2011,06,26,04,01,6.90
2011,06,26,04,02,6.90
2011,06,26,04,03,6.80
2011,06,26,04,04,6.80
2011,06,26,04,05,6.80
2011,06,26,04,06,6.80
2011,06,26,04,07,6.80
2011,06,26,04,08,6.80
2011,06,26,04,09,6.80
2011,06,26,04,10,6.80
2011,06,26,04,11,6.80
2011,06,26,04,12,6.90
2011,06,26,04,13,6.90
2011,06,26,04,14,7.00
2011,06,26,04,15,7.00
2011,06,26,04,16,7.10
2011,06,26,04,17,7.20
2011,06,26,04,18,7.30
2011,06,26,04,19,7.30
2011,06,26,04,20,7.30
2011,06,26,04,21,7.30
2011,06,26,04,22,7.10
2011,06,26,04,23,7.00
2011,06,26,04,24,6.90
2011,06,26,04,25,6.80
2011,06,26,04,26,6.80
2011,06,26,04,27,6.70
2011,06,26,04,28,6.60
2011,06,26,04,29,6.60
2011,06,26,04,30,6.60
2011,06,26,04,31,6.60
2011,06,26,04,32,6.60
2011,06,26,04,33,6.60
2011,06,26,04,34,6.60
2011,06,26,04,35,6.60
2011,06,26,04,36,6.60
2011,06,26,04,37,6.60
2011,06,26,04,38,6.60
2011,06,26,04,39,6.60
2011,06,26,04,40,6.60
2011,06,26,04,41,6.60
2011,06,26,04,42,6.60
2011,06,26,04,43,6.60
2011,06,26,04,44,6.70
2011,06,26,04,45,6.70
2011,06,26,04,46,6.70
2011,06,26,04,47,6.80
2011,06,26,04,48,6.80
2011,06,26,04,49,6.80
2011,06,26,04,50,6.80
2011,06,26,04,51,6.80
2011,06,26,04,52,6.80
2011,06,26,04,53,6.80
2011,06,26,04,54,6.80
2011,06,26,04,55,6.90
2011,06,26,04,56,6.90
2011,06,26,04,57,6.90
2011,06,26,04,58,6.90
2011,06,26,04,59,6.90
2011,06,26,05,00,6.90
2011,06,26,05,01,6.90
2011,06,26,05,02,6.90
2011,06,26,05,03,6.90
2011,06,26,05,04,6.90
2011,06,26,05,05,6.90
2011,06,26,05,06,6.90
2011,06,26,05,07,6.90
2011,06,26,05,08,6.90
2011,06,26,05,09,7.00
2011,06,26,05,10,7.00
2011,06,26,05,11,7.00
2011,06,26,05,12,7.00
2011,06,26,05,13,7.00
2011,06,26,05,14,7.00
2011,06,26,05,15,6.90
2011,06,26,05,16,6.80
2011,06,26,05,17,6.80
2011,06,26,05,18,6.80
2011,06,26,05,19,6.70
2011,06,26,05,20,6.70
2011,06,26,05,21,6.70
2011,06,26,05,22,6.70
2011,06,26,05,23,6.80
2011,06,26,05,24,6.80
2011,06,26,05,25,6.80
2011,06,26,05,26,6.80
2011,06,26,05,27,6.80
2011,06,26,05,28,6.80
2011,06,26,05,29,6.80
2011,06,26,05,30,6.80
2011,06,26,05,31,6.80
2011,06,26,05,32,6.80
2011,06,26,05,33,6.80
2011,06,26,05,34,6.90
2011,06,26,05,35,6.90
2011,06,26,05,36,7.00
2011,06,26,05,37,7.00
2011,06,26,05,38,7.00
2011,06,26,05,39,7.00
2011,06,26,05,40,7.10
2011,06,26,05,41,7.10
2011,06,26,05,42,7.10
2011,06,26,05,43,7.10
2011,06,26,05,44,7.10
2011,06,26,05,45,7.10
2011,06,26,05,46,7.00
2011,06,26,05,47,7.00
2011,06,26,05,48,7.00
2011,06,26,05,49,7.00
2011,06,26,05,50,7.00
2011,06,26,05,51,7.00
2011,06,26,05,52,7.00
2011,06,26,05,53,7.00
2011,06,26,05,54,7.00
2011,06,26,05,55,7.00
2011,06,26,05,56,7.00
2011,06,26,05,57,7.10
2011,06,26,05,58,7.10
2011,06,26,05,59,7.10
2011,06,26,06,00,7.10
2011,06,26,06,01,7.20
2011,06,26,06,02,7.20
2011,06,26,06,03,7.10
2011,06,26,06,04,7.00
2011,06,26,06,05,6.90
2011,06,26,06,06,6.80
2011,06,26,06,07,6.70
2011,06,26,06,08,6.70
2011,06,26,06,09,6.60
2011,06,26,06,10,6.60
2011,06,26,06,11,6.60
2011,06,26,06,12,6.60
2011,06,26,06,13,6.70
2011,06,26,06,14,6.80
2011,06,26,06,15,6.80
2011,06,26,06,16,6.90
2011,06,26,06,17,6.90
2011,06,26,06,18,7.00
2011,06,26,06,19,7.00
2011,06,26,06,20,7.10
2011,06,26,06,21,7.10
2011,06,26,06,22,7.10
2011,06,26,06,23,7.10
2011,06,26,06,24,7.00
2011,06,26,06,25,7.00
2011,06,26,06,26,7.00
2011,06,26,06,27,6.90
2011,06,26,06,28,6.90
2011,06,26,06,29,6.90
2011,06,26,06,30,6.90
2011,06,26,06,31,6.90
2011,06,26,06,32,6.90
2011,06,26,06,33,7.00
2011,06,26,06,34,7.00
2011,06,26,06,35,7.00
2011,06,26,06,36,7.00
2011,06,26,06,37,7.10
2011,06,26,06,38,7.20
2011,06,26,06,39,7.20
2011,06,26,06,40,7.30
2011,06,26,06,41,7.30
2011,06,26,06,42,7.40
2011,06,26,06,43,7.50
2011,06,26,06,44,7.60
2011,06,26,06,45,7.70
2011,06,26,06,46,7.80
2011,06,26,06,47,7.90
2011,06,26,06,48,8.00
2011,06,26,06,49,8.20
2011,06,26,06,50,8.30
2011,06,26,06,51,8.50
2011,06,26,06,52,8.60
2011,06,26,06,53,8.70
2011,06,26,06,54,8.90
2011,06,26,06,55,9.00
2011,06,26,06,56,9.10
2011,06,26,06,57,9.20
2011,06,26,06,58,9.30
2011,06,26,06,59,9.40
2011,06,26,07,00,9.50
2011,06,26,07,01,9.60
2011,06,26,07,02,9.70
2011,06,26,07,03,9.80
2011,06,26,07,04,9.90
2011,06,26,07,05,10.10
2011,06,26,07,06,10.20
2011,06,26,07,07,10.40
2011,06,26,07,08,10.50
2011,06,26,07,09,10.60
2011,06,26,07,10,10.60
2011,06,26,07,11,10.70
2011,06,26,07,12,10.80
2011,06,26,07,13,10.80
2011,06,26,07,14,10.90
2011,06,26,07,15,10.90
2011,06,26,07,16,10.90
2011,06,26,07,17,10.90
2011,06,26,07,18,11.00
2011,06,26,07,19,11.10
2011,06,26,07,20,11.10
2011,06,26,07,21,11.10
2011,06,26,07,22,11.10
2011,06,26,07,23,11.10
2011,06,26,07,24,11.10
2011,06,26,07,25,11.10
2011,06,26,07,26,11.20
2011,06,26,07,27,11.20
2011,06,26,07,28,11.30
2011,06,26,07,29,11.30
2011,06,26,07,30,11.30
2011,06,26,07,31,11.30
2011,06,26,07,32,11.30
2011,06,26,07,33,11.30
2011,06,26,07,34,11.20
2011,06,26,07,35,11.20
2011,06,26,07,36,11.10
2011,06,26,07,37,11.10
2011,06,26,07,38,11.20
2011,06,26,07,39,11.20
2011,06,26,07,40,11.20
2011,06,26,07,41,11.30
2011,06,26,07,42,11.40
2011,06,26,07,43,11.40
2011,06,26,07,44,11.40
2011,06,26,07,45,11.40
2011,06,26,07,46,11.40
2011,06,26,07,47,11.50
2011,06,26,07,48,11.60
2011,06,26,07,49,11.60
2011,06,26,07,50,11.60
2011,06,26,07,51,11.70
2011,06,26,07,52,11.70
2011,06,26,07,53,11.70
2011,06,26,07,54,11.80
2011,06,26,07,55,11.80
2011,06,26,07,56,11.80
2011,06,26,07,57,11.90
2011,06,26,07,58,12.00
2011,06,26,07,59,12.00
2011,06,26,08,00,12.10
2011,06,26,08,01,12.10
2011,06,26,08,02,12.10
2011,06,26,08,03,12.10
2011,06,26,08,04,12.10
2011,06,26,08,05,12.20
2011,06,26,08,06,12.10
2011,06,26,08,07,12.10
2011,06,26,08,08,12.10
2011,06,26,08,09,12.00
2011,06,26,08,10,12.00
2011,06,26,08,11,12.00
2011,06,26,08,12,12.00
2011,06,26,08,13,12.00
2011,06,26,08,14,12.00
2011,06,26,08,15,11.90
2011,06,26,08,16,11.90
2011,06,26,08,17,12.00
2011,06,26,08,18,12.00
2011,06,26,08,19,12.00
2011,06,26,08,20,12.00
2011,06,26,08,21,12.00
2011,06,26,08,22,12.00
2011,06,26,08,23,12.00
2011,06,26,08,24,12.10
2011,06,26,08,25,12.10
2011,06,26,08,26,12.10
2011,06,26,08,27,12.20
2011,06,26,08,28,12.20
2011,06,26,08,29,12.30
2011,06,26,08,30,12.30
2011,06,26,08,31,12.30
2011,06,26,08,32,12.30
2011,06,26,08,33,12.40
2011,06,26,08,34,12.40
2011,06,26,08,35,12.40
2011,06,26,08,36,12.40
2011,06,26,08,37,12.40
2011,06,26,08,38,12.40
2011,06,26,08,39,12.40
2011,06,26,08,40,12.40
2011,06,26,08,41,12.40
2011,06,26,08,42,12.40
2011,06,26,08,43,12.40
2011,06,26,08,44,12.40
2011,06,26,08,45,12.40
2011,06,26,08,46,12.40
2011,06,26,08,47,12.50
2011,06,26,08,48,12.50
2011,06,26,08,49,12.60
2011,06,26,08,50,12.60
2011,06,26,08,51,12.60
2011,06,26,08,52,12.70
2011,06,26,08,53,12.70
2011,06,26,08,54,12.80
2011,06,26,08,55,12.80
2011,06,26,08,56,12.80
2011,06,26,08,57,12.80
2011,06,26,08,58,12.80
2011,06,26,08,59,12.90
2011,06,26,09,00,12.90
2011,06,26,09,01,13.00
2011,06,26,09,02,13.00
2011,06,26,09,03,13.00
2011,06,26,09,04,13.10
2011,06,26,09,05,13.10
2011,06,26,09,06,13.20
2011,06,26,09,07,13.20
2011,06,26,09,08,13.30
2011,06,26,09,09,13.40
2011,06,26,09,10,13.50
2011,06,26,09,11,13.50
2011,06,26,09,12,13.50
2011,06,26,09,13,13.60
2011,06,26,09,14,13.60
2011,06,26,09,15,13.70
2011,06,26,09,16,13.70
2011,06,26,09,17,13.70
2011,06,26,09,18,13.70
2011,06,26,09,19,13.70
2011,06,26,09,20,13.70
2011,06,26,09,21,13.60
2011,06,26,09,22,13.60
2011,06,26,09,23,13.60
2011,06,26,09,24,13.50
2011,06,26,09,25,13.50
2011,06,26,09,26,13.40
2011,06,26,09,27,13.40
2011,06,26,09,28,13.40
2011,06,26,09,29,13.40
2011,06,26,09,30,13.40
2011,06,26,09,31,13.40
2011,06,26,09,32,13.40
2011,06,26,09,33,13.40
2011,06,26,09,34,13.40
2011,06,26,09,35,13.50
2011,06,26,09,36,13.40
2011,06,26,09,37,13.50
2011,06,26,09,38,13.50
2011,06,26,09,39,13.50
2011,06,26,09,40,13.60
2011,06,26,09,41,13.70
2011,06,26,09,42,13.70
2011,06,26,09,43,13.80
2011,06,26,09,44,13.90
2011,06,26,09,45,13.90
2011,06,26,09,46,14.00
2011,06,26,09,47,14.10
2011,06,26,09,48,14.20
2011,06,26,09,49,14.20
2011,06,26,09,50,14.20
2011,06,26,09,51,14.30
2011,06,26,09,52,14.40
2011,06,26,09,53,14.40
2011,06,26,09,54,14.40
2011,06,26,09,55,14.50
2011,06,26,09,56,14.50
2011,06,26,09,57,14.50
2011,06,26,09,58,14.50
2011,06,26,09,59,14.50
2011,06,26,10,00,14.60
2011,06,26,10,01,14.60
2011,06,26,10,02,14.60
2011,06,26,10,03,14.70
2011,06,26,10,04,14.70
2011,06,26,10,05,14.80
2011,06,26,10,06,14.80
2011,06,26,10,07,14.80
2011,06,26,10,08,14.90
2011,06,26,10,09,14.90
2011,06,26,10,10,15.00
2011,06,26,10,11,15.00
2011,06,26,10,12,14.90
2011,06,26,10,13,14.90
2011,06,26,10,14,14.90
2011,06,26,10,15,14.80
2011,06,26,10,16,14.80
2011,06,26,10,17,14.80
2011,06,26,10,18,14.80
2011,06,26,10,19,14.80
2011,06,26,10,20,14.80
2011,06,26,10,21,14.80
2011,06,26,10,22,14.80
2011,06,26,10,23,14.90
2011,06,26,10,24,15.00
2011,06,26,10,25,15.10
2011,06,26,10,26,15.20
2011,06,26,10,27,15.20
2011,06,26,10,28,15.30
2011,06,26,10,29,15.30
2011,06,26,10,30,15.20
2011,06,26,10,31,15.30
2011,06,26,10,32,15.30
2011,06,26,10,33,15.30
2011,06,26,10,34,15.40
2011,06,26,10,35,15.50
2011,06,26,10,36,15.60
2011,06,26,10,37,15.60
2011,06,26,10,38,15.60
2011,06,26,10,39,15.60
2011,06,26,10,40,15.70
2011,06,26,10,41,15.70
2011,06,26,10,42,15.80
2011,06,26,10,43,15.80
2011,06,26,10,44,15.80
2011,06,26,10,45,15.80
2011,06,26,10,46,15.70
2011,06,26,10,47,15.50
2011,06,26,10,48,15.40
2011,06,26,10,49,15.30
2011,06,26,10,50,15.20
2011,06,26,10,51,15.10
2011,06,26,10,52,15.00
2011,06,26,10,53,15.00
2011,06,26,10,54,15.00
2011,06,26,10,55,15.00
2011,06,26,10,56,15.10
2011,06,26,10,57,15.10
2011,06,26,10,58,15.20
2011,06,26,10,59,15.30
2011,06,26,11,00,15.30
2011,06,26,11,01,15.30
2011,06,26,11,02,15.40
2011,06,26,11,03,15.40
2011,06,26,11,04,15.40
2011,06,26,11,05,15.50
2011,06,26,11,06,15.50
2011,06,26,11,07,15.50
2011,06,26,11,08,15.50
2011,06,26,11,09,15.50
2011,06,26,11,10,15.50
2011,06,26,11,11,15.50
2011,06,26,11,12,15.50
2011,06,26,11,13,15.40
2011,06,26,11,14,15.40
2011,06,26,11,15,15.30
2011,06,26,11,16,15.30
2011,06,26,11,17,15.30
2011,06,26,11,18,15.20
2011,06,26,11,19,15.30
2011,06,26,11,20,15.30
2011,06,26,11,21,15.40
2011,06,26,11,22,15.40
2011,06,26,11,23,15.40
2011,06,26,11,24,15.40
2011,06,26,11,25,15.40
2011,06,26,11,26,15.30
2011,06,26,11,27,15.30
2011,06,26,11,28,15.40
2011,06,26,11,29,15.40
2011,06,26,11,30,15.30
2011,06,26,11,31,15.30
2011,06,26,11,32,15.30
2011,06,26,11,33,15.30
2011,06,26,11,34,15.30
2011,06,26,11,35,15.30
2011,06,26,11,36,15.30
2011,06,26,11,37,15.40
2011,06,26,11,38,15.40
2011,06,26,11,39,15.40
2011,06,26,11,40,15.40
2011,06,26,11,41,15.40
2011,06,26,11,42,15.40
2011,06,26,11,43,15.50
2011,06,26,11,44,15.50
2011,06,26,11,45,15.50
2011,06,26,11,46,15.50
2011,06,26,11,47,15.60
2011,06,26,11,48,15.70
2011,06,26,11,49,15.70
2011,06,26,11,50,15.80
2011,06,26,11,51,15.80
2011,06,26,11,52,15.90
2011,06,26,11,53,15.90
2011,06,26,11,54,15.90
2011,06,26,11,55,15.90
2011,06,26,11,56,16.10
2011,06,26,11,57,16.10
2011,06,26,11,58,16.20
2011,06,26,11,59,16.30
2011,06,26,12,00,16.30
2011,06,26,12,01,16.40
2011,06,26,12,02,16.40
2011,06,26,12,03,16.40
2011,06,26,12,04,16.40
2011,06,26,12,05,16.60
2011,06,26,12,06,16.60
2011,06,26,12,07,16.70
2011,06,26,12,08,16.70
2011,06,26,12,09,16.70
2011,06,26,12,10,16.70
2011,06,26,12,11,16.70
2011,06,26,12,12,16.70
2011,06,26,12,13,16.70
2011,06,26,12,14,16.80
2011,06,26,12,15,16.80
2011,06,26,12,16,16.80
2011,06,26,12,17,16.80
2011,06,26,12,18,16.80
2011,06,26,12,19,16.70
2011,06,26,12,20,16.70
2011,06,26,12,21,16.70
2011,06,26,12,22,16.70
2011,06,26,12,23,16.70
2011,06,26,12,24,16.70
2011,06,26,12,25,16.70
2011,06,26,12,26,16.80
2011,06,26,12,27,16.80
2011,06,26,12,28,16.80
2011,06,26,12,29,16.90
2011,06,26,12,30,17.00
2011,06,26,12,31,17.00
2011,06,26,12,32,16.90
2011,06,26,12,33,16.80
2011,06,26,12,34,16.70
2011,06,26,12,35,16.70
2011,06,26,12,36,16.70
2011,06,26,12,37,16.80
2011,06,26,12,38,17.00
2011,06,26,12,39,17.10
2011,06,26,12,40,17.20
2011,06,26,12,41,17.20
2011,06,26,12,42,17.30
2011,06,26,12,43,17.30
2011,06,26,12,44,17.30
2011,06,26,12,45,17.20
2011,06,26,12,46,17.20
2011,06,26,12,47,17.20
2011,06,26,12,48,17.30
2011,06,26,12,49,17.30
2011,06,26,12,50,17.30
2011,06,26,12,51,17.30
2011,06,26,12,52,17.30
2011,06,26,12,53,17.30
2011,06,26,12,54,17.30
2011,06,26,12,55,17.20
2011,06,26,12,56,17.20
2011,06,26,12,57,17.10
2011,06,26,12,58,17.10
2011,06,26,12,59,17.20
2011,06,26,13,00,17.20
2011,06,26,13,01,17.30
2011,06,26,13,02,17.30
2011,06,26,13,03,17.30
2011,06,26,13,04,17.30
2011,06,26,13,05,17.30
2011,06,26,13,06,17.30
2011,06,26,13,07,17.30
2011,06,26,13,08,17.40
2011,06,26,13,09,17.50
2011,06,26,13,10,17.60
2011,06,26,13,11,17.70
2011,06,26,13,12,17.80
2011,06,26,13,13,17.80
2011,06,26,13,14,17.90
2011,06,26,13,15,17.80
2011,06,26,13,16,17.90
2011,06,26,13,17,17.90
2011,06,26,13,18,17.90
2011,06,26,13,19,17.90
2011,06,26,13,20,18.00
2011,06,26,13,21,18.00
2011,06,26,13,22,17.90
2011,06,26,13,23,18.00
2011,06,26,13,24,18.10
2011,06,26,13,25,18.20
2011,06,26,13,26,18.20
2011,06,26,13,27,18.20
2011,06,26,13,28,18.20
2011,06,26,13,29,18.20
2011,06,26,13,30,18.20
2011,06,26,13,31,18.20
2011,06,26,13,32,18.10
2011,06,26,13,33,17.90
2011,06,26,13,34,18.10
2011,06,26,13,35,18.10
2011,06,26,13,36,18.10
2011,06,26,13,37,17.90
2011,06,26,13,38,17.90
2011,06,26,13,39,18.00
2011,06,26,13,40,18.10
2011,06,26,13,41,18.20
2011,06,26,13,42,18.20
2011,06,26,13,43,18.20
2011,06,26,13,44,18.20
2011,06,26,13,45,18.20
2011,06,26,13,46,18.20
2011,06,26,13,47,18.20
2011,06,26,13,48,18.20
2011,06,26,13,49,18.10
2011,06,26,13,50,18.10
2011,06,26,13,51,18.10
2011,06,26,13,52,18.20
2011,06,26,13,53,18.20
2011,06,26,13,54,18.20
2011,06,26,13,55,18.30
2011,06,26,13,56,18.30
2011,06,26,13,57,18.30
2011,06,26,13,58,18.30
2011,06,26,13,59,18.30
2011,06,26,14,00,18.30
2011,06,26,14,01,18.30
2011,06,26,14,02,18.40
2011,06,26,14,03,18.40
2011,06,26,14,04,18.20
2011,06,26,14,05,18.10
2011,06,26,14,06,18.00
2011,06,26,14,07,17.90
2011,06,26,14,08,17.90
2011,06,26,14,09,17.90
2011,06,26,14,10,17.80
2011,06,26,14,11,17.90
2011,06,26,14,12,17.80
2011,06,26,14,13,17.80
2011,06,26,14,14,17.80
2011,06,26,14,15,17.80
2011,06,26,14,16,17.80
2011,06,26,14,17,17.80
2011,06,26,14,18,17.80
2011,06,26,14,19,17.80
2011,06,26,14,20,17.80
2011,06,26,14,21,17.90
2011,06,26,14,22,17.90
2011,06,26,14,23,18.00
2011,06,26,14,24,18.10
2011,06,26,14,25,18.10
2011,06,26,14,26,18.20
2011,06,26,14,27,18.20
2011,06,26,14,28,18.20
2011,06,26,14,29,18.20
2011,06,26,14,30,18.20
2011,06,26,14,31,18.20
2011,06,26,14,32,18.20
2011,06,26,14,33,18.10
2011,06,26,14,34,18.00
2011,06,26,14,35,17.90
2011,06,26,14,36,17.90
2011,06,26,14,37,17.90
2011,06,26,14,38,17.90
2011,06,26,14,39,17.90
2011,06,26,14,40,17.90
2011,06,26,14,41,17.90
2011,06,26,14,42,18.00
2011,06,26,14,43,18.10
2011,06,26,14,44,18.10
2011,06,26,14,45,18.20
2011,06,26,14,46,18.20
2011,06,26,14,47,18.20
2011,06,26,14,48,18.20
2011,06,26,14,49,18.20
2011,06,26,14,50,18.20
2011,06,26,14,51,18.20
2011,06,26,14,52,18.20
2011,06,26,14,53,18.20
2011,06,26,14,54,18.30
2011,06,26,14,55,18.40
2011,06,26,14,56,18.40
2011,06,26,14,57,18.50
2011,06,26,14,58,18.50
2011,06,26,14,59,18.60
2011,06,26,15,00,18.70
2011,06,26,15,01,18.70
2011,06,26,15,02,18.70
2011,06,26,15,03,18.60
2011,06,26,15,04,18.60
2011,06,26,15,05,18.60
2011,06,26,15,06,18.60
2011,06,26,15,07,18.60
2011,06,26,15,08,18.50
2011,06,26,15,09,18.60
2011,06,26,15,10,18.60
2011,06,26,15,11,18.70
2011,06,26,15,12,18.80
2011,06,26,15,13,18.80
2011,06,26,15,14,18.90
2011,06,26,15,15,18.90
2011,06,26,15,16,18.90
2011,06,26,15,17,18.90
2011,06,26,15,18,18.80
2011,06,26,15,19,18.80
2011,06,26,15,20,18.80
2011,06,26,15,21,18.80
2011,06,26,15,22,18.80
2011,06,26,15,23,18.90
2011,06,26,15,24,18.80
2011,06,26,15,25,18.80
2011,06,26,15,26,18.80
2011,06,26,15,27,18.80
2011,06,26,15,28,18.80
2011,06,26,15,29,18.70
2011,06,26,15,30,18.70
2011,06,26,15,31,18.60
2011,06,26,15,32,18.50
2011,06,26,15,33,18.40
2011,06,26,15,34,18.30
2011,06,26,15,35,18.30
2011,06,26,15,36,18.30
2011,06,26,15,37,18.30
2011,06,26,15,38,18.20
2011,06,26,15,39,18.20
2011,06,26,15,40,18.20
2011,06,26,15,41,18.20
2011,06,26,15,42,18.20
2011,06,26,15,43,18.20
2011,06,26,15,44,18.10
2011,06,26,15,45,18.10
2011,06,26,15,46,18.10
2011,06,26,15,47,18.20
2011,06,26,15,48,18.20
2011,06,26,15,49,18.30
2011,06,26,15,50,18.40
2011,06,26,15,51,18.50
2011,06,26,15,52,18.70
2011,06,26,15,53,18.90
2011,06,26,15,54,19.10
2011,06,26,15,55,19.10
2011,06,26,15,56,19.10
2011,06,26,15,57,19.20
2011,06,26,15,58,19.10
2011,06,26,15,59,19.10
2011,06,26,16,00,19.00
2011,06,26,16,01,18.90
2011,06,26,16,02,18.90
2011,06,26,16,03,18.90
2011,06,26,16,04,18.90
2011,06,26,16,05,18.90
2011,06,26,16,06,18.90
2011,06,26,16,07,18.80
2011,06,26,16,08,18.80
2011,06,26,16,09,18.90
2011,06,26,16,10,18.90
2011,06,26,16,11,18.90
2011,06,26,16,12,18.90
2011,06,26,16,13,18.90
2011,06,26,16,14,18.80
2011,06,26,16,15,18.80
2011,06,26,16,16,18.80
2011,06,26,16,17,18.80
2011,06,26,16,18,18.80
2011,06,26,16,19,18.90
2011,06,26,16,20,18.90
2011,06,26,16,21,18.90
2011,06,26,16,22,18.90
2011,06,26,16,23,18.90
2011,06,26,16,24,19.10
2011,06,26,16,25,19.10
2011,06,26,16,26,19.10
2011,06,26,16,27,19.10
2011,06,26,16,28,19.10
2011,06,26,16,29,19.10
2011,06,26,16,30,19.10
2011,06,26,16,31,19.20
2011,06,26,16,32,19.20
2011,06,26,16,33,19.30
2011,06,26,16,34,19.30
2011,06,26,16,35,19.20
2011,06,26,16,36,19.20
2011,06,26,16,37,19.30
2011,06,26,16,38,19.30
2011,06,26,16,39,19.30
2011,06,26,16,40,19.30
2011,06,26,16,41,19.30
2011,06,26,16,42,19.20
2011,06,26,16,43,19.20
2011,06,26,16,44,19.20
2011,06,26,16,45,19.30
2011,06,26,16,46,19.30
2011,06,26,16,47,19.40
2011,06,26,16,48,19.40
2011,06,26,16,49,19.40
2011,06,26,16,50,19.40
2011,06,26,16,51,19.50
2011,06,26,16,52,19.60
2011,06,26,16,53,19.70
2011,06,26,16,54,19.70
2011,06,26,16,55,19.70
2011,06,26,16,56,19.90
2011,06,26,16,57,20.00
2011,06,26,16,58,20.10
2011,06,26,16,59,20.20
2011,06,26,17,00,20.20
2011,06,26,17,01,20.30
2011,06,26,17,02,20.40
2011,06,26,17,03,20.40
2011,06,26,17,04,20.40
2011,06,26,17,05,20.50
2011,06,26,17,06,20.50
2011,06,26,17,07,20.40
2011,06,26,17,08,20.30
2011,06,26,17,09,20.20
2011,06,26,17,10,20.20
2011,06,26,17,11,20.20
2011,06,26,17,12,20.20
2011,06,26,17,13,20.20
2011,06,26,17,14,20.20
2011,06,26,17,15,20.20
2011,06,26,17,16,20.20
2011,06,26,17,17,20.20
2011,06,26,17,18,20.20
2011,06,26,17,19,20.10
2011,06,26,17,20,20.00
2011,06,26,17,21,19.90
2011,06,26,17,22,19.80
2011,06,26,17,23,19.80
2011,06,26,17,24,19.80
2011,06,26,17,25,19.80
2011,06,26,17,26,19.90
2011,06,26,17,27,19.90
2011,06,26,17,28,19.90
2011,06,26,17,29,19.90
2011,06,26,17,30,19.90
2011,06,26,17,31,19.90
2011,06,26,17,32,19.90
2011,06,26,17,33,19.90
2011,06,26,17,34,19.90
2011,06,26,17,35,19.90
2011,06,26,17,36,19.90
2011,06,26,17,37,19.90